| time (UTC) | temp C | wind direction | speed KPH | gust KPH | rain 1hr cm | rain 24hr cm | rain mn cm | humidity % | barometer mb |
| 20260505184610 | -1 | 90 | 3.2 | 0.0 | 0.00 | 0.00 | 1.09 | 91 | 1007.4 |
| 20260505183158 | 0 | 99 | 3.2 | 0.0 | 0.00 | 0.00 | 1.09 | 91 | 1007.3 |
| 20260505181534 | 0 | 140 | 3.2 | 0.0 | 0.00 | 0.00 | 1.09 | 92 | 1007.3 |
| 20260505180050 | -1 | 157 | 4.8 | 0.0 | 0.00 | 0.00 | 1.07 | 92 | 1007.9 |
| 20260505174539 | 0 | 133 | 1.6 | 0.0 | 0.00 | 0.00 | 1.04 | 92 | 1008.2 |
| 20260505173039 | 0 | 143 | 0.0 | 0.0 | 0.00 | 0.00 | 1.02 | 92 | 1008.5 |
| 20260505171602 | -1 | 145 | 1.6 | 0.0 | 0.00 | 0.00 | 0.99 | 92 | 1008.4 |
| 20260505170022 | 0 | 123 | 0.0 | 0.0 | 0.00 | 0.00 | 0.91 | 92 | 1008.0 |
| 20260505164529 | 0 | 65 | 0.0 | 0.0 | 0.00 | 0.00 | 0.89 | 91 | 1008.8 |
| 20260505163003 | 0 | 65 | 0.0 | 0.0 | 0.00 | 0.00 | 0.89 | 92 | 1008.7 |
| 20260505161603 | 0 | 88 | 0.0 | 0.0 | 0.00 | 0.00 | 0.86 | 92 | 1008.7 |
| 20260505153111 | -1 | 88 | 0.0 | 0.0 | 0.00 | 0.00 | 0.84 | 93 | 1009.0 |
| 20260505151536 | -1 | 88 | 0.0 | 0.0 | 0.00 | 0.00 | 0.81 | 93 | 1008.3 |
| 20260505150115 | -1 | 88 | 0.0 | 0.0 | 0.00 | 0.00 | 0.76 | 94 | 1008.4 |
| 20260505140117 | -1 | 88 | 0.0 | 0.0 | 0.00 | 0.00 | 0.64 | 94 | 1009.1 |
| 20260505124608 | -1 | 89 | 0.0 | 0.0 | 0.00 | 0.00 | 0.51 | 94 | 1008.0 |
| 20260505123044 | -1 | 89 | 0.0 | 0.0 | 0.00 | 0.00 | 0.43 | 94 | 1008.0 |
| 20260505121602 | 0 | 88 | 0.0 | 0.0 | 0.00 | 0.00 | 0.38 | 94 | 1007.7 |
| 20260505120105 | 0 | 88 | 1.6 | 0.0 | 0.00 | 0.00 | 0.33 | 94 | 1006.4 |
| 20260505114552 | -17 | 0.0 | 0.0 | 0.00 | 0.00 | 0.15 | 1001.6 | ||
| 20260505113019 | -17 | 0.0 | 0.0 | 0.00 | 0.00 | 0.15 | 1001.6 | ||
| 20260505111519 | 0 | 130 | 3.2 | 0.0 | 0.00 | 0.00 | 0.15 | 93 | 1006.2 |
| 20260505101503 | 0 | 86 | 1.6 | 0.0 | 0.00 | 0.00 | 0.13 | 94 | 1002.7 |
| 20260505100008 | 0 | 113 | 0.0 | 0.0 | 0.00 | 0.00 | 0.13 | 94 | 1002.7 |
| 20260505094607 | 1 | 113 | 0.0 | 0.0 | 0.00 | 0.00 | 0.10 | 94 | 1002.5 |
| 20260505093043 | 1 | 112 | 0.0 | 0.0 | 0.00 | 0.00 | 0.05 | 94 | 1002.0 |
| 20260505091503 | 1 | 72 | 0.0 | 0.0 | 0.00 | 0.00 | 0.05 | 94 | 1001.0 |
| 20260505090036 | 2 | 64 | 0.0 | 0.0 | 0.00 | 0.00 | 0.05 | 94 | 1001.0 |
| 20260505084555 | 2 | 61 | 0.0 | 0.0 | 0.00 | 0.00 | 0.05 | 94 | 1000.3 |
| 20260505083030 | 3 | 61 | 1.6 | 0.0 | 0.00 | 0.00 | 0.05 | 94 | 1000.2 |
| 20260505081512 | 3 | 126 | 0.0 | 0.0 | 0.00 | 0.00 | 0.05 | 94 | 999.8 |
| 20260505080103 | 3 | 126 | 0.0 | 0.0 | 0.00 | 0.00 | 0.03 | 94 | 1000.9 |
| 20260505074540 | 3 | 126 | 0.0 | 0.0 | 0.00 | 0.00 | 0.03 | 94 | 1001.2 |
| 20260505073045 | 3 | 126 | 1.6 | 0.0 | 0.00 | 0.00 | 0.03 | 94 | 1001.4 |
| 20260505071549 | 3 | 126 | 0.0 | 0.0 | 0.00 | 0.00 | 0.00 | 94 | 1001.8 |
| 20260505070059 | 3 | 126 | 0.0 | 0.0 | 0.00 | 0.00 | 0.00 | 94 | 1000.3 |
| 20260505064544 | 3 | 126 | 0.0 | 0.0 | 0.00 | 0.00 | 0.00 | 94 | 1000.4 |
| 20260505063025 | 3 | 126 | 0.0 | 0.0 | 0.00 | 0.00 | 0.00 | 94 | 1000.6 |
| 20260505061609 | 3 | 126 | 0.0 | 0.0 | 0.00 | 0.00 | 0.00 | 94 | 1000.6 |
| 20260505060002 | 3 | 126 | 0.0 | 0.0 | 0.00 | 0.00 | 0.00 | 94 | 1001.4 |
| 20260505054552 | 3 | 126 | 0.0 | 0.0 | 0.00 | 0.00 | 0.00 | 94 | 1001.4 |
| 20260505053024 | 3 | 126 | 0.0 | 0.0 | 0.00 | 0.00 | 0.00 | 94 | 1001.3 |
| 20260505051503 | 3 | 126 | 0.0 | 0.0 | 0.00 | 0.00 | 0.00 | 94 | 1001.3 |
| 20260505041536 | 3 | 126 | 0.0 | 0.0 | 0.00 | 0.00 | 0.33 | 94 | 1001.3 |
| 20260505040050 | 3 | 126 | 0.0 | 0.0 | 0.00 | 0.00 | 0.33 | 94 | 1002.0 |
| 20260505034512 | 3 | 126 | 0.0 | 0.0 | 0.00 | 0.00 | 0.33 | 94 | 1002.0 |
| 20260505033101 | 3 | 126 | 0.0 | 0.0 | 0.00 | 0.00 | 0.33 | 93 | 1002.0 |
| 20260505031545 | 3 | 126 | 0.0 | 0.0 | 0.00 | 0.00 | 0.33 | 93 | 1001.7 |
| 20260505030044 | 3 | 126 | 0.0 | 0.0 | 0.00 | 0.00 | 0.33 | 93 | 1002.1 |
| 20260505024525 | 3 | 126 | 1.6 | 0.0 | 0.00 | 0.00 | 0.33 | 92 | 1001.8 |
| 20260505023113 | 3 | 126 | 0.0 | 0.0 | 0.00 | 0.00 | 0.33 | 92 | 1001.8 |
| 20260505021548 | 3 | 126 | 0.0 | 0.0 | 0.00 | 0.00 | 0.33 | 91 | 1001.8 |
| 20260505020005 | 3 | 126 | 1.6 | 0.0 | 0.00 | 0.00 | 0.33 | 90 | 1001.8 |
| 20260505014556 | 3 | 126 | 0.0 | 0.0 | 0.00 | 0.00 | 0.30 | 90 | 1002.4 |
| 20260505013019 | 3 | 126 | 0.0 | 0.0 | 0.00 | 0.00 | 0.30 | 89 | 1002.5 |
| 20260505011553 | 3 | 126 | 0.0 | 0.0 | 0.00 | 0.00 | 0.25 | 88 | 1002.7 |
| 20260505010017 | 3 | 126 | 0.0 | 0.0 | 0.00 | 0.00 | 0.20 | 87 | 1003.3 |
| 20260505004524 | 3 | 126 | 0.0 | 0.0 | 0.00 | 0.00 | 0.18 | 85 | 1003.4 |
| 20260505003046 | 3 | 126 | 0.0 | 0.0 | 0.00 | 0.00 | 0.15 | 82 | 1003.6 |
| 20260505001558 | 4 | 127 | 1.6 | 0.0 | 0.00 | 0.00 | 0.15 | 81 | 1003.0 |
| 20260505000003 | 6 | 215 | 4.8 | 0.0 | 0.00 | 0.00 | 0.10 | 74 | 1002.4 |
| 20260504234606 | 7 | 359 | 1.6 | 0.0 | 0.00 | 0.00 | 0.08 | 66 | 1002.4 |
| 20260504233025 | 8 | 356 | 11.3 | 0.0 | 0.00 | 0.00 | 0.08 | 62 | 1001.6 |
| 20260504231606 | 8 | 354 | 12.9 | 0.0 | 0.00 | 0.00 | 0.08 | 64 | 1001.4 |
| 20260504230014 | 7 | 354 | 8.0 | 0.0 | 0.00 | 0.00 | 0.08 | 68 | 1001.8 |
| 20260504224608 | 7 | 354 | 6.4 | 0.0 | 0.00 | 0.00 | 0.08 | 71 | 1001.5 |
| 20260504223031 | 8 | 340 | 8.0 | 0.0 | 0.00 | 0.00 | 0.08 | 73 | 1001.5 |
| 20260504221504 | 8 | 357 | 3.2 | 0.0 | 0.00 | 0.00 | 0.03 | 53 | 1001.3 |
| 20260504220008 | 10 | 359 | 6.4 | 0.0 | 0.00 | 0.00 | 0.00 | 45 | 1000.1 |
| 20260504214607 | 12 | 346 | 6.4 | 0.0 | 0.00 | 0.00 | 0.00 | 41 | 999.1 |
| 20260504213111 | 13 | 267 | 4.8 | 0.0 | 0.00 | 0.00 | 0.00 | 39 | 998.5 |
| 20260504211530 | 12 | 72 | 3.2 | 0.0 | 0.00 | 0.00 | 0.00 | 41 | 998.6 |
| 20260504210052 | 12 | 251 | 4.8 | 0.0 | 0.00 | 0.00 | 0.00 | 45 | 999.5 |
| 20260504204531 | 11 | 353 | 1.6 | 0.0 | 0.00 | 0.00 | 0.00 | 46 | 1000.6 |
| 20260504203003 | 11 | 343 | 1.6 | 0.0 | 0.00 | 0.00 | 0.00 | 44 | 1001.6 |
| 20260504201554 | 10 | 353 | 3.2 | 0.0 | 0.00 | 0.00 | 0.00 | 48 | 1001.6 |
| 20260504200003 | 10 | 350 | 1.6 | 0.0 | 0.00 | 0.00 | 0.00 | 46 | 1001.4 |
| 20260504194605 | 11 | 319 | 3.2 | 0.0 | 0.00 | 0.00 | 0.00 | 43 | 1001.7 |
| 20260504193035 | 11 | 339 | 3.2 | 0.0 | 0.00 | 0.00 | 0.00 | 41 | 1001.2 |
| 20260504191502 | 12 | 352 | 3.2 | 0.0 | 0.00 | 0.00 | 0.00 | 39 | 999.8 |
| 20260504190019 | 13 | 350 | 6.4 | 0.0 | 0.00 | 0.00 | 0.00 | 38 | 999.8 |